Location: Macksville High School
(37.9611°N, 99.9654°W)
Time: 18:34:35
(UTC+00:00)

OAO 2 Rocket - Pass Details

Date: 27 February 2020
Orbit: 675 x 746 km, 35.0° (Epoch: 03 April)

Event Time Altitude Azimuth Distance (km) Brightness Sun altitude
Exits shadow 12:01:58 17° 233° (SW) 1,756 4.9 -15.2°
Maximum altitude 12:05:40 48° 165° (SSE) 949 4.1 -14.4°
Drops below altitude 10° 12:10:44 10° 92° (E) 2,242 7.4 -13.4°
Sets 12:13:16 0° 87° (E) 3,172 8.8 -12.9°
